Location: Ellerstadt
(49.4644°N, 8.2615°E)
Time: 05:05:06
(UTC+00:00)

Meteor 1-5 Rocket - Pass Details

Date: 03 March 2021
Orbit: 790 x 914 km, 81.2° (Epoch: 11 April)

Event Time Altitude Azimuth Distance (km) Brightness Sun altitude
Rises 18:31:11 0° 174° (S) 3,289 7.2 -13.5°
Reaches altitude 10° 18:33:34 10° 170° (S) 2,374 6.4 -13.8°
Maximum altitude 18:38:44 52° 95° (E) 1,010 4.2 -14.7°
Drops below altitude 10° 18:44:06 10° 20° (NNE) 2,458 6.5 -15.5°
Sets 18:46:36 0° 16° (NNE) 3,417 7.3 -15.9°
